User: anonymous   Login
Location: Unspecified
(0.0000°N, 0.0000°E)
Time: 00:37:26
(UTC+00:00)
Language:

Kosmos-2233 - Orbit

View from above orbital plane
View from above orbital plane
View from above satellite
View from above satellite

Ground track
Ground track

The orbit data is extracted from the following two-line orbital elements,

1 22487U 93008A   17206.59671682 +.00000063 +00000-0 +49406-4 0  9999
2 22487 082.9434 071.8917 0037808 189.6318 229.7589 13.75761587223313
Epoch (UTC): 25 July 2017 14:19:16
Eccentricity: 0.0037808
inclination: 82.9434°
perigee height: 951 km
apogee height: 1007 km
right ascension of ascending node: 71.8917°
argument of perigee: 189.6318°
revolutions per day: 13.75761587
mean anomaly at epoch: 229.7589°
orbit number at epoch: 22331

The dashed part of the orbit path shows where the satellite is in the earth's shadow,  

DLR